Weather in Sofiysk

Russia / Khabarovsk Krai     51°34′15″N   139°50′51″E
temp.,
°C
wind,
m/s
gust,
m/s
humid.,
%
clouds,
%
prec.,
mm/h
press.,
hPa
HPBL,
m
8 august, mon
mon801:00+15ese2299100 0.1 100365
04:00+16ese2399100 0.1 1002154
07:00+16se1299100 0.0 1000202
10:00+16ese1298100 0.1 998206
13:00+18se2396100 0.6 997302
16:00+18se2392100 0.9 996288
19:00+18ese2396100 1.4 995175
22:00+17ese1298100 5.3 99460
9 august, tue
tue901:00+17ssw0099100 7.8 99474
04:00+17wsw2299100 8.1 994100
07:00+17sw249631 0.1 994333
10:00+20wsw47650 0.1 995860
13:00+23wsw574753 0.0 9941616
16:00+24w474355 0.0 9931842
19:00+20sw26671 0.0 994157
22:00+15sse227683 0.0 99523
10 august, wed
wed1001:00+14sse337376 0.0 99447
04:00+13s228091 0.0 99514
07:00+15sse2276100 0.0 99579
10:00+19sw247059 0.6 995768
13:00+19sw366956 1.4 995828
16:00+23w364578 1.4 9931633
19:00+15se2293100 2.8 99631
22:00+14e2197100 5.1 99532
11 august, thu
thu1101:00+14w1198100 1.0 99522
04:00+14sw2296100 1.4 99532
07:00+13sw249264 0.0 996136
10:00+16wsw477698 0.4 996822
13:00+18wsw467733 1.3 9961051
16:00+18w567516 3.0 9961123
19:00+16wsw23885 1.8 99775
22:00+13sw229357 2.3 99920
12 august, fri
fri1201:00+11sw229573 0.2 100018
04:00+12sw229598 0.2 100140
07:00+13sw229317 0.0 100298
10:00+18w23685 0.0 1002803
13:00+20nw2361100 0.3 10021180
16:00+19nne2268100 0.9 1002908
19:00+17ne1179100 0.1 100326
22:00+13se1191100 0.1 100411